Tracking 19817 objects as of 18-Aug-2019
HD Live streaming from Space Station
objects crossing your sky now

COSMOS 1375

Track COSMOS 1375 now!
10-day predictions
COSMOS 1375 is classified as:


NORAD ID: 13259
Int'l Code: 1982-055A
Perigee: 940.3 km
Apogee: 979.9 km
Inclination: 65.8 °
Period: 104.1 minutes
Semi major axis: 7331 km
RCS: 0.955 m2 (medium)
Launch date: June 6, 1982
Source: Commonwealth of Independent States (former USSR) (CIS)
Launch site: PLESETSK MISSILE AND SPACE COMPLEX (PKMTR)
aabbcc
Your satellite tracking list
Your tracking list is empty




NASA's NSSDC Master Catalog

Two Line Element Set (TLE):
1 13259U 82055A   19228.92940324 -.00000000 +00000-0 +74806-4 0  9995
2 13259 065.8311 183.9091 0027023 313.3480 046.5335 13.83089005868750
Source of the keplerian elements: AFSPC